This is the latest recevied weather packets stored in our database for station/object R2AKT-13. If no packets are shown the sender has not sent any weather packets the latest 10 day(s).
| Time | Temp. | Humidity | Pressure | Rain* | Wind** | Luminosity | Snow |
|---|---|---|---|---|---|---|---|
| 1777633604 | 7.22° C | 46% | 996.4 hPa | - | 1.34 m/s, 276° | - | - |
| 1777633034 | 6.67° C | 46% | 996.3 hPa | - | 2.24 m/s, 296° | - | - |
| 1777632501 | 7.78° C | 45% | 996.4 hPa | - | 0.89 m/s, 166° | - | - |
| 1777632014 | 7.78° C | 44% | 996.4 hPa | - | 0.89 m/s, 290° | - | - |
| 1777631414 | 7.78° C | 44% | 996.3 hPa | - | 0.45 m/s, 287° | - | - |
| 1777630908 | 7.22° C | 46% | 996.4 hPa | - | 0.45 m/s, 123° | - | - |
| 1777630359 | 6.67° C | 45% | 996.4 hPa | - | 0.45 m/s, 314° | - | - |
| 1777629844 | 7.22° C | 46% | 996.4 hPa | - | 0.89 m/s, 223° | - | - |
| 1777629344 | 6.67° C | 46% | 996.4 hPa | - | 1.34 m/s, 266° | - | - |
| 1777628744 | 7.22° C | 46% | 996.4 hPa | - | 0.45 m/s, 189° | - | - |
| 1777628228 | 7.22° C | 47% | 996.3 hPa | - | 0.45 m/s, 189° | - | - |
| 1777627674 | 6.67° C | 46% | 996.4 hPa | - | 0.89 m/s, 256° | - | - |
| 1777627079 | 6.67° C | 47% | 996.3 hPa | - | 0.89 m/s, 221° | - | - |
| 1777626494 | 6.67° C | 47% | 996.3 hPa | - | 0.89 m/s, 252° | - | - |
| 1777625964 | 7.22° C | 47% | 996.4 hPa | - | 0.45 m/s, 197° | - | - |
| 1777625399 | 6.67° C | 49% | 996.4 hPa | - | 0.45 m/s, 187° | - | - |
| 1777624828 | 6.11° C | 50% | 996.5 hPa | - | 0.45 m/s, 257° | - | - |
| 1777624239 | 6.11° C | 51% | 996.5 hPa | - | 0.45 m/s, 192° | - | - |
| 1777623639 | 5.56° C | 51% | 996.5 hPa | - | 0.45 m/s, 259° | - | - |
| 1777623148 | 6.11° C | 51% | 996.5 hPa | - | 0.45 m/s, 223° | - | - |
| 1777622548 | 6.11° C | 50% | 996.5 hPa | - | 0.45 m/s, 178° | - | - |
| 1777621984 | 5.56° C | 52% | 996.4 hPa | - | 0.45 m/s, 216° | - | - |
| 1777621488 | 6.11° C | 51% | 996.5 hPa | - | 0.89 m/s, 239° | - | - |
| 1777620999 | 5.56° C | 52% | 996.4 hPa | - | 0.45 m/s, 142° | - | - |
| 1777620408 | 5.56° C | 51% | 996.4 hPa | - | 0.45 m/s, 187° | - | - |
* Rain since midnight (hover to see other rain measurements)
** Current wind speed in m/s (hover to see current wind gust speed)